THORAD AGENA D DEB, 4709

Orbit data source: Space-Track

THORAD AGENA D DEB, 4709 is space debris in SSO originally from a launch on Wed, 08 Apr 1970 UTC launched from the Air Force Western Test Range (AFWTR). Debris objects in space refer to the collection of defunct objects orbiting the Earth. Examples of debris include non-operational satellites, rocket bodies, and fragments generated from explosions, collisions, or faulty payload assembly.

Loading next visibility...
Identifier
4709, 1970-025BX
Orbit
SSO
Country
Flag of USUS
Related business
Manufacturer
Unknown
Mission
Spacecraft
Bus & Motor
Unknown
Mass
Unknown
Launch date (UTC)
1970-04-08 (56 years ago)
Launch vehicle
Unknown
Launch site
Air Force Western Test Range (AFWTR)
Object type
Payload
Rocket body
Debris
Shape & HBR
Unknown shape, 0.1 m
Radar Cross Section
Small (<0.1 m²)

Expand to show TLE details & history
Last TLE update: 7 hours ago

TLE from 7 hours ago
0 THORAD AGENA D DEB
1 04709U 70025BX  26095.26667364  .00008347  00000-0  16743-2 0  9991
2 04709 100.0126   8.8580 0072077 337.7913  22.0164 14.60397799892567
Epoch: 2026-04-05T06:24Z
TLE epoch observation values (Epoch: 2026-04-05T06:24:00.602Z)
Latitude
-0.00001°
Longitude
79.28094°
Altitude
647.614 km
Speed
7.559 km/s
True Right ascension
00h 35m 25s
True Declination
0° 00' 00"
Sunlit
Object was in daylight at epoch
Visualization orbit readout
Latitude
Unknown
Longitude
Unknown
Altitude
Unknown
Speed
Unknown
Apparent Right ascension
Unknown
Apparent Declination
Unknown
Sunlit
N/A
Visualization observer readout
Local Sidereal Time
19:28:57
Azimuth
Unknown
Elevation
Unknown
Doppler factor
Unknown
Orbital elements
Apogee altitude
740.001 km
Perigee altitude
638.124 km
Semi-major axis
7,067.2 km
Eccentricity
0.00721
Inclination
100.0126°
RAAN
8.858°
Arg. of periapsis
337.7913°
True anomaly
22.32863°
Mean anomaly
22.0164°
Eccentric anomaly
22.17225°
Mean motion
3.65319 °/min
Orbital period
98.54 mins
BSTAR
0.0016743
Loading maneuver chart data...
Computing Atmospheric mass density...

Documentation

Showing up to 5 results
|